When you browse on this site, cookies collect data to enhance your experience and personalize the content and advertising you see.
Visit our Privacy Policy to learn more. By continuing to use the site, you agree to this use of cookies and data.

Météo par heure à Zimapán

Ce jour, 10 Juillet, Vendredi

Heure Température Précipitation Vent Pression Humidité
00:00 +18°C° 0 mm 1 m/s 614 mmHg 79%
01:00 +18°C° 0 mm 1 m/s 613 mmHg 78%
02:00 +18°C° 0 mm 1 m/s 613 mmHg 78%
03:00 +18°C° 0 mm 1 m/s 613 mmHg 79%
04:00 +16°C° 0 mm 1 m/s 613 mmHg 80%
05:00 +15°C° 0 mm 0 m/s 612 mmHg 81%
06:00 +17°C° 0 mm 0 m/s 613 mmHg 73%
07:00 +19°C° 0 mm 0 m/s 614 mmHg 65%
08:00 +21°C° 0 mm 0 m/s 615 mmHg 58%
09:00 +24°C° 0 mm 1 m/s 616 mmHg 52%
10:00 +26°C° 0 mm 2 m/s 616 mmHg 45%
11:00 +27°C° 0 mm 3 m/s 616 mmHg 39%
12:00 +27°C° 0 mm 4 m/s 616 mmHg 39%
13:00 +28°C° 0 mm 4 m/s 616 mmHg 40%
14:00 +28°C° 0 mm 5 m/s 615 mmHg 40%
15:00 +27°C° 0 mm 5 m/s 615 mmHg 45%
16:00 +26°C° 0 mm 5 m/s 614 mmHg 51%
17:00 +25°C° 0 mm 4 m/s 614 mmHg 56%
18:00 +22°C° 0 mm 3 m/s 614 mmHg 66%
19:00 +20°C° 0 mm 3 m/s 614 mmHg 76%
20:00 +18°C° 0 mm 2 m/s 614 mmHg 86%
21:00 +19°C° 0 mm 1 m/s 614 mmHg 88%
22:00 +18°C° 0 mm 1 m/s 614 mmHg 91%
23:00 +18°C° 0 mm 1 m/s 614 mmHg 94%

Demain, 11 Juillet, Samedi

Heure Température Précipitation Vent Pression Humidité
00:00 +16°C° 0 mm 1 m/s 613 mmHg 95%
01:00 +16°C° 0 mm 1 m/s 613 mmHg 95%
02:00 +15°C° 0 mm 1 m/s 612 mmHg 96%
03:00 +14°C° 0 mm 0 m/s 612 mmHg 96%
04:00 +14°C° 0 mm 0 m/s 612 mmHg 96%
05:00 +14°C° 0 mm 0 m/s 612 mmHg 97%
06:00 +16°C° 0 mm 1 m/s 613 mmHg 87%
07:00 +19°C° 0 mm 1 m/s 614 mmHg 78%
08:00 +21°C° 0 mm 1 m/s 615 mmHg 69%
09:00 +23°C° 0 mm 2 m/s 615 mmHg 62%
10:00 +24°C° 0 mm 3 m/s 615 mmHg 54%
11:00 +26°C° 0 mm 4 m/s 616 mmHg 47%
12:00 +26°C° 0 mm 4 m/s 615 mmHg 48%
13:00 +26°C° 0 mm 4 m/s 615 mmHg 49%
14:00 +26°C° 0 mm 5 m/s 614 mmHg 50%
15:00 +25°C° 0.3 mm 5 m/s 614 mmHg 57%
16:00 +23°C° 0.3 mm 4 m/s 613 mmHg 64%
17:00 +22°C° 0.3 mm 4 m/s 613 mmHg 70%
18:00 +20°C° 0.4 mm 3 m/s 613 mmHg 78%
19:00 +19°C° 0.4 mm 2 m/s 613 mmHg 85%
20:00 +18°C° 0.4 mm 1 m/s 613 mmHg 92%
21:00 +18°C° 0.9 mm 1 m/s 613 mmHg 92%
22:00 +18°C° 0.9 mm 1 m/s 613 mmHg 93%
23:00 +18°C° 0.9 mm 1 m/s 614 mmHg 93%

Après-demain, 12 Juillet, Dimanche

Heure Température Précipitation Vent Pression Humidité
00:00 +18°C° 0.5 mm 1 m/s 613 mmHg 94%
01:00 +16°C° 0.5 mm 1 m/s 613 mmHg 94%
02:00 +16°C° 0.5 mm 1 m/s 613 mmHg 94%
03:00 +16°C° 0.1 mm 1 m/s 612 mmHg 94%
04:00 +16°C° 0.1 mm 1 m/s 612 mmHg 94%
05:00 +16°C° 0.1 mm 1 m/s 612 mmHg 94%
06:00 +18°C° 0 mm 1 m/s 613 mmHg 89%
07:00 +19°C° 0 mm 1 m/s 614 mmHg 83%
08:00 +21°C° 0 mm 1 m/s 614 mmHg 77%
09:00 +22°C° 0 mm 1 m/s 614 mmHg 68%
10:00 +24°C° 0 mm 2 m/s 615 mmHg 59%
11:00 +26°C° 0 mm 2 m/s 615 mmHg 50%
12:00 +26°C° 0.1 mm 3 m/s 615 mmHg 48%
13:00 +27°C° 0.1 mm 4 m/s 614 mmHg 47%
14:00 +27°C° 0.1 mm 5 m/s 614 mmHg 46%
15:00 +26°C° 0.1 mm 5 m/s 614 mmHg 50%
16:00 +25°C° 0.1 mm 5 m/s 613 mmHg 55%
17:00 +23°C° 0.1 mm 4 m/s 613 mmHg 59%
18:00 +21°C° 0 mm 3 m/s 612 mmHg 69%
19:00 +19°C° 0 mm 2 m/s 612 mmHg 78%
20:00 +18°C° 0 mm 1 m/s 612 mmHg 87%
21:00 +18°C° 0 mm 1 m/s 612 mmHg 88%
22:00 +16°C° 0 mm 1 m/s 612 mmHg 89%
23:00 +16°C° 0 mm 1 m/s 612 mmHg 91%

13 Juillet, Lundi

Heure Température Précipitation Vent Pression Humidité
00:00 +14°C° 0 mm 0 m/s 612 mmHg 91%
01:00 +14°C° 0 mm 0 m/s 612 mmHg 91%
02:00 +14°C° 0 mm 0 m/s 611 mmHg 91%
03:00 +13°C° 0 mm 0 m/s 611 mmHg 91%
04:00 +13°C° 0 mm 0 m/s 611 mmHg 91%
05:00 +13°C° 0 mm 0 m/s 611 mmHg 91%
06:00 +15°C° 0 mm 0 m/s 612 mmHg 80%
07:00 +18°C° 0 mm 0 m/s 614 mmHg 68%
08:00 +20°C° 0 mm 0 m/s 615 mmHg 57%
09:00 +24°C° 0 mm 1 m/s 615 mmHg 50%
10:00 +25°C° 0 mm 2 m/s 615 mmHg 42%
11:00 +26°C° 0 mm 2 m/s 615 mmHg 35%
12:00 +27°C° 0 mm 3 m/s 615 mmHg 35%
13:00 +27°C° 0 mm 4 m/s 615 mmHg 36%
14:00 +28°C° 0 mm 5 m/s 614 mmHg 36%
15:00 +27°C° 0 mm 4 m/s 614 mmHg 40%
16:00 +26°C° 0 mm 4 m/s 613 mmHg 45%
17:00 +25°C° 0 mm 4 m/s 613 mmHg 49%
18:00 +22°C° 0 mm 3 m/s 613 mmHg 59%
19:00 +20°C° 0 mm 2 m/s 613 mmHg 69%
20:00 +19°C° 0 mm 1 m/s 613 mmHg 79%
21:00 +18°C° 0 mm 1 m/s 613 mmHg 81%
22:00 +18°C° 0 mm 1 m/s 613 mmHg 83%
23:00 +15°C° 0 mm 0 m/s 612 mmHg 86%

14 Juillet, Mardi

Heure Température Précipitation Vent Pression Humidité
00:00 +15°C° 0 mm 0 m/s 612 mmHg 86%
01:00 +15°C° 0 mm 0 m/s 612 mmHg 86%
02:00 +14°C° 0 mm 0 m/s 611 mmHg 86%
03:00 +14°C° 0 mm 0 m/s 611 mmHg 85%
04:00 +14°C° 0 mm 0 m/s 611 mmHg 84%
05:00 +14°C° 0 mm 0 m/s 611 mmHg 83%
06:00 +16°C° 0 mm 0 m/s 612 mmHg 73%
07:00 +19°C° 0 mm 0 m/s 613 mmHg 63%
08:00 +21°C° 0 mm 0 m/s 614 mmHg 53%
09:00 +24°C° 0 mm 1 m/s 615 mmHg 49%
10:00 +26°C° 0 mm 1 m/s 615 mmHg 45%
11:00 +27°C° 0 mm 2 m/s 615 mmHg 41%
12:00 +28°C° 0 mm 3 m/s 615 mmHg 41%
13:00 +28°C° 0 mm 4 m/s 614 mmHg 40%
14:00 +29°C° 0 mm 4 m/s 614 mmHg 40%
15:00 +27°C° 0 mm 4 m/s 614 mmHg 47%
16:00 +26°C° 0 mm 4 m/s 613 mmHg 53%
17:00 +25°C° 0 mm 4 m/s 613 mmHg 60%
18:00 +22°C° 0.1 mm 3 m/s 612 mmHg 71%
19:00 +20°C° 0.1 mm 3 m/s 612 mmHg 81%
20:00 +18°C° 0.1 mm 2 m/s 612 mmHg 91%
21:00 +19°C° 0 mm 1 m/s 612 mmHg 93%
22:00 +18°C° 0 mm 1 m/s 612 mmHg 94%
23:00 +18°C° 0 mm 1 m/s 612 mmHg 96%

15 Juillet, Mercredi

Heure Température Précipitation Vent Pression Humidité
00:00 +16°C° 0 mm 1 m/s 612 mmHg 95%
01:00 +16°C° 0 mm 1 m/s 611 mmHg 95%
02:00 +15°C° 0 mm 0 m/s 611 mmHg 95%
03:00 +15°C° 0 mm 0 m/s 611 mmHg 95%
04:00 +14°C° 0 mm 0 m/s 611 mmHg 95%
05:00 +14°C° 0 mm 0 m/s 611 mmHg 95%
06:00 +16°C° 0 mm 0 m/s 612 mmHg 85%
07:00 +18°C° 0 mm 0 m/s 613 mmHg 75%
08:00 +20°C° 0 mm 0 m/s 614 mmHg 66%
09:00 +24°C° 0 mm 1 m/s 614 mmHg 57%
10:00 +25°C° 0 mm 2 m/s 615 mmHg 49%
11:00 +27°C° 0 mm 3 m/s 615 mmHg 41%
12:00 +27°C° 0 mm 3 m/s 615 mmHg 41%
13:00 +28°C° 0 mm 4 m/s 614 mmHg 41%
14:00 +28°C° 0 mm 5 m/s 614 mmHg 40%
15:00 +27°C° 0 mm 5 m/s 613 mmHg 46%
16:00 +25°C° 0 mm 4 m/s 613 mmHg 52%
17:00 +23°C° 0 mm 4 m/s 612 mmHg 57%
18:00 +21°C° 0 mm 3 m/s 612 mmHg 66%
19:00 +19°C° 0 mm 2 m/s 612 mmHg 75%
20:00 +17°C° 0 mm 2 m/s 612 mmHg 84%
21:00 +18°C° 0 mm 1 m/s 612 mmHg 86%
22:00 +16°C° 0 mm 1 m/s 612 mmHg 89%
23:00 +16°C° 0 mm 1 m/s 612 mmHg 91%
Voir plus